This is the latest recevied weather packets stored in our database for station/object PY2FGD-13. If no packets are shown the sender has not sent any weather packets the latest 10 day(s).
| Time | Temp. | Humidity | Pressure | Rain* | Wind** | Luminosity | Snow |
|---|---|---|---|---|---|---|---|
| 1777870665 | 21.67° C | 76% | 1019.5 hPa | - | - | - | - |
| 1777868866 | 21.67° C | 77% | 1019.9 hPa | - | - | - | - |
| 1777868266 | 21.67° C | 77% | 1019.9 hPa | - | - | - | - |
| 1777865866 | 21.67° C | 78% | 1019.7 hPa | - | - | - | - |
| 1777863466 | 21.67° C | 80% | 1020.2 hPa | - | - | - | - |
| 1777855066 | 21.67° C | 72% | 1020.5 hPa | - | - | - | - |
| 1777853265 | 21.67° C | 74% | 1020.6 hPa | - | - | - | - |
| 1777838265 | 20.56° C | 71% | 1019.7 hPa | - | - | - | - |
| 1777835865 | 20.56° C | 71% | 1019.7 hPa | - | - | - | - |
| 1777832865 | 21.67° C | 67% | 1019.5 hPa | - | - | - | - |
| 1777830465 | 21.67° C | 68% | 1019.3 hPa | - | - | - | - |
| 1777823265 | 21.11° C | 69% | 1020.7 hPa | - | - | - | - |
| 1777820266 | 21.11° C | 69% | 1021.3 hPa | - | - | - | - |
| 1777819080 | 20.56° C | 72% | 1021.7 hPa | - | - | - | - |
| 1777817864 | 20.56° C | 73% | 1021.8 hPa | - | - | - | - |
| 1777816065 | 20.56° C | 76% | 1022 hPa | - | - | - | - |
| 1777811264 | 22.78° C | 76% | 1020.9 hPa | - | - | - | - |
| 1777805265 | 22.78° C | 76% | 1019.5 hPa | - | - | - | - |
| 1777804664 | 22.78° C | 76% | 1019.4 hPa | - | - | - | - |
| 1777801665 | 22.78° C | 76% | 1018.9 hPa | - | - | - | - |
| 1777798680 | 22.78° C | 76% | 1018.1 hPa | - | - | - | - |
| 1777793864 | 22.78° C | 76% | 1017.2 hPa | - | - | - | - |
| 1777789665 | 22.78° C | 77% | 1017.4 hPa | - | - | - | - |
| 1777789064 | 22.78° C | 77% | 1017.5 hPa | - | - | - | - |
| 1777786065 | 22.78° C | 77% | 1017.8 hPa | - | - | - | - |
* Rain since midnight (hover to see other rain measurements)
** Current wind speed in m/s (hover to see current wind gust speed)